Regional Weather Roundup
Issued by NWS

Home | Current Version | Previous Version | Text Only | Print | Product List | Glossary On
Versions: 1 2 3 4 5 6 7 8 9 10 11 12 13 14 15 16 17 18 19 20 21 22 23 24 25 26 27 28
000
ASUS42 KKEY 020110
RWRKEY

FLORIDA REGIONAL WEATHER ROUNDUP FOR THE FLORIDA KEYS
NATIONAL WEATHER SERVICE KEY WEST FLORIDA
900 PM EDT SUN MAY 01 2016

...SOUTH FLORIDA AND THE KEYS...

CITY           SKY/WX    TMP DP  RH WIND       PRES   REMARKS
FORT MYERS     CLEAR     79  71  76 SW3       29.98R
SW REGIONAL AP CLEAR     78  71  79 SW5       29.99R
NAPLES         CLEAR     79  71  76 CALM      29.99R
MIAMI          PTCLDY    80  71  74 E9        30.01R
WEST KENDALL   CLEAR     78  69  73 E12       30.00R
HOMESTEAD      CLEAR     78  69  75 E6        30.00R
MARATHON       CLEAR     80  70  71 E8        29.98R
BOCA CHICA NAS PTCLDY    79  70  74 E15       29.97R
KEY WEST INTL  CLEAR     79  71  76 E15       29.97R

...INTERNATIONAL WEATHER...

CITY           SKY/WX    TMP DP  RH WIND       PRES   REMARKS
NASSAU BAHAMAS PTCLDY    79  73  83 E12       30.04R
CANCUN MEXICO  MOCLDY    82  75  78 E9        29.87R
COZUMEL MEXICO PTCLDY    77  75  94 E12       29.89R

ADJACENT COASTAL WATERS...

STATION/POSITION TIME  SKY/WX   TEMP    WIND        PRES    WAVE
                                AIR SEA DIR/SP/G            HT/PER
                 (UTC)          (F)     (DEG/KT/KT) (MB)    (FT/S)
PULASKI SHOAL LI 0100            78     100/ 11/ 11 1014.5R
SAND KEY         0050            79     100/ 19/ 22 1014.9R
SOMBRERO KEY     NOT AVBL
LONG KEY         0000            80 82  100/ 13/ 15 1015.1R
MOLASSES REEF    0000            79 81   70/ 11/ 13 1015.4R
FOWEY ROCKS      NOT AVBL

$$




USA.gov is the U.S. government's official web portal to all federal, state and local government web resources and services.